BAW6491 EDDH-EHAM

Flight info

Callsign BAW6491
Flight time N/A
Altitude 28000
Route WSN5G/33 WSN N125 ITMIZ DCT BLUFA
Aircraft A20N/M-SDE2E3FGHIRWXY/LB1

Departure

Time 2026-04-23 19:48
Airport Hamburg Helmut Schmidt Airport (EDDH)

Arrival

Time N/A
Airport Amsterdam Airport Schiphol (EHAM)
Time Latitude Longitude Altitude Speed Heading
2026-04-23 19:18 53.63114 10.00375 48 ft 0 kts 90°
2026-04-23 19:33 53.63114 10.00356 46 ft 2 kts 90°
2026-04-23 19:33 53.63115 10.00299 46 ft 2 kts 95°
2026-04-23 19:34 53.63118 10.00271 46 ft 2 kts 116°
2026-04-23 19:34 53.63129 10.00256 42 ft 1 kts 180°
2026-04-23 19:34 53.63132 10.00256 42 ft 0 kts 181°
2026-04-23 19:37 53.63125 10.00257 45 ft 4 kts 177°
2026-04-23 19:37 53.63055 10.00242 47 ft 15 kts 204°
2026-04-23 19:37 53.63041 10.00230 47 ft 0 kts 213°
2026-04-23 19:38 53.63041 10.00229 47 ft 1 kts 213°
2026-04-23 19:38 53.63000 10.00186 46 ft 0 kts 212°
2026-04-23 19:39 53.62980 10.00165 46 ft 4 kts 211°
2026-04-23 19:39 53.62943 10.00129 45 ft 8 kts 211°
2026-04-23 19:39 53.62936 10.00121 45 ft 0 kts 212°
2026-04-23 19:39 53.62904 10.00088 43 ft 8 kts 212°
2026-04-23 19:40 53.62879 10.00059 42 ft 4 kts 219°
2026-04-23 19:40 53.62879 10.00058 42 ft 0 kts 220°
2026-04-23 19:41 53.62864 10.00024 45 ft 11 kts 239°
2026-04-23 19:41 53.62843 9.99953 44 ft 0 kts 242°
2026-04-23 19:44 53.62843 9.99952 44 ft 1 kts 242°
2026-04-23 19:44 53.62825 9.99894 46 ft 11 kts 243°
2026-04-23 19:44 53.62858 9.99752 46 ft 9 kts 329°
2026-04-23 19:44 53.62863 9.99748 46 ft 0 kts 332°
2026-04-23 19:47 53.62876 9.99736 47 ft 13 kts 332°
2026-04-23 19:47 53.63161 9.99491 48 ft 51 kts 332°
2026-04-23 19:47 53.63535 9.99162 49 ft 73 kts 331°
2026-04-23 19:47 53.64275 9.98533 248 ft 153 kts 330°
2026-04-23 19:48 53.65293 9.97697 1313 ft 161 kts 331°
2026-04-23 19:48 53.66306 9.96807 2700 ft 170 kts 333°
2026-04-23 19:48 53.67449 9.95800 3910 ft 204 kts 333°
2026-04-23 19:48 53.68337 9.95026 4616 ft 228 kts 333°
2026-04-23 19:49 53.70321 9.92740 5217 ft 302 kts 314°
2026-04-23 19:49 53.71488 9.89401 5245 ft 361 kts 293°
2026-04-23 19:49 53.72024 9.85030 5749 ft 386 kts 280°
2026-04-23 19:49 53.72324 9.80574 7577 ft 378 kts 279°
2026-04-23 19:50 53.72534 9.76262 8272 ft 354 kts 273°
2026-04-23 19:50 53.72078 9.72307 8269 ft 338 kts 252°
2026-04-23 19:50 53.70813 9.69065 8340 ft 326 kts 233°
2026-04-23 19:50 53.69363 9.66248 8839 ft 311 kts 234°
2026-04-23 19:51 53.67985 9.63523 9670 ft 302 kts 234°
2026-04-23 19:51 53.66638 9.60823 10078 ft 300 kts 234°
2026-04-23 19:51 53.65313 9.58141 10228 ft 301 kts 236°
2026-04-23 19:51 53.64075 9.55280 10264 ft 299 kts 239°
2026-04-23 19:52 53.63269 9.53374 10267 ft 300 kts 239°
2026-04-23 19:52 53.61638 9.49537 10821 ft 304 kts 239°
2026-04-23 19:52 53.60392 9.46617 11977 ft 310 kts 238°
2026-04-23 19:52 53.59120 9.43645 13324 ft 312 kts 238°
2026-04-23 19:53 53.57839 9.40659 14536 ft 318 kts 237°
2026-04-23 19:53 53.56524 9.37600 15550 ft 323 kts 237°
2026-04-23 19:53 53.56135 9.36696 15794 ft 336 kts 237°